Time,TemperatureF,DewpointF,PressureIn,WindDirection,WindDirectionDegrees,WindSpeedMPH,WindSpeedGustMPH,Humidity,HourlyPrecipIn,Conditions,Clouds,dailyrainin,SoftwareType,DateUTC
2013-01-26 00:32:00,-999.0,-99.9,-100.00,West,266,10.0,16.0,-999,-99.99,,,-99.99,,2013-01-26 06:32:00,
2013-01-26 00:42:00,-999.0,-99.9,30.13,West,266,10.0,16.0,-999,-99.99,,,-99.99,,2013-01-26 06:42:00,
2013-01-26 01:02:00,-999.0,-99.9,-100.00,West,266,10.0,15.0,-999,-99.99,,,-99.99,,2013-01-26 07:02:00,
2013-01-26 01:12:00,-999.0,-99.9,30.14,West,266,10.0,15.0,-999,-99.99,,,-99.99,,2013-01-26 07:12:00,
2013-01-26 01:33:00,11.0,-99.9,30.14,West,271,10.0,15.0,-999,-99.99,,,-99.99,,2013-01-26 07:33:00,
2013-01-26 02:02:00,12.0,-99.9,30.16,West,271,10.0,16.0,-999,-99.99,,,-99.99,,2013-01-26 08:02:00,
2013-01-26 02:32:00,-999.0,-99.9,-100.00,WNW,283,11.0,14.0,-999,-99.99,,,-99.99,,2013-01-26 08:32:00,
2013-01-26 02:42:00,-999.0,-99.9,30.18,WNW,283,11.0,14.0,-999,-99.99,,,-99.99,,2013-01-26 08:42:00,
2013-01-26 03:02:00,11.0,-99.9,30.18,West,281,10.0,14.0,-999,-99.99,,,-99.99,,2013-01-26 09:02:00,
2013-01-26 03:32:00,11.0,-99.9,30.19,WNW,283,11.0,17.0,-999,-99.99,,,-99.99,,2013-01-26 09:32:00,
2013-01-26 04:02:00,-999.0,-99.9,-100.00,WNW,284,11.0,16.0,-999,-99.99,,,-99.99,,2013-01-26 10:02:00,
2013-01-26 04:12:00,-999.0,-99.9,30.19,WNW,284,11.0,16.0,-999,-99.99,,,-99.99,,2013-01-26 10:12:00,
2013-01-26 04:32:00,11.0,-99.9,30.20,WNW,282,9.0,15.0,-999,-99.99,,,-99.99,,2013-01-26 10:32:00,
2013-01-26 05:32:00,-999.0,-99.9,-100.00,West,273,11.0,15.0,-999,-99.99,,,-99.99,,2013-01-26 11:32:00,
2013-01-26 05:42:00,-999.0,-99.9,30.22,West,273,11.0,15.0,-999,-99.99,,,-99.99,,2013-01-26 11:42:00,
2013-01-26 06:33:00,-999.0,-99.9,-100.00,WNW,283,9.0,13.0,-999,-99.99,,,-99.99,,2013-01-26 12:33:00,
2013-01-26 06:42:00,-999.0,-99.9,30.24,WNW,283,9.0,13.0,-999,-99.99,,,-99.99,,2013-01-26 12:42:00,
2013-01-26 07:04:00,10.0,-99.9,30.26,WNW,282,9.0,13.0,-999,-99.99,,,-99.99,,2013-01-26 13:04:00,
2013-01-26 08:03:00,-999.0,-99.9,-100.00,West,281,9.0,15.0,-999,-99.99,,,-99.99,,2013-01-26 14:03:00,
2013-01-26 08:12:00,-999.0,-99.9,30.29,West,281,9.0,15.0,-999,-99.99,,,-99.99,,2013-01-26 14:12:00,
2013-01-26 08:32:00,12.0,-99.9,30.30,WNW,293,11.0,16.0,-999,-99.99,,,-99.99,,2013-01-26 14:32:00,
2013-01-26 09:33:00,-999.0,-99.9,-100.00,NW,309,13.0,14.0,-999,-99.99,,,-99.99,,2013-01-26 15:33:00,
2013-01-26 09:43:00,-999.0,-99.9,30.32,NW,309,13.0,14.0,-999,-99.99,,,-99.99,,2013-01-26 15:43:00,
2013-01-26 10:03:00,17.0,-99.9,30.33,NW,304,9.0,13.0,-999,-99.99,,,-99.99,,2013-01-26 16:03:00,
2013-01-26 10:33:00,-999.0,-99.9,-100.00,NW,316,13.0,15.0,-999,-99.99,,,-99.99,,2013-01-26 16:33:00,
2013-01-26 10:43:00,-999.0,-99.9,30.35,NW,316,13.0,15.0,-999,-99.99,,,-99.99,,2013-01-26 16:43:00,
2013-01-26 11:03:00,19.0,-99.9,30.35,NNW,328,10.0,13.0,-999,-99.99,,,-99.99,,2013-01-26 17:03:00,
2013-01-26 12:03:00,-999.0,-99.9,-100.00,NNW,338,8.0,10.0,-999,-99.99,,,-99.99,,2013-01-26 18:03:00,
2013-01-26 12:12:00,-999.0,-99.9,30.35,NNW,338,8.0,10.0,-999,-99.99,,,-99.99,,2013-01-26 18:12:00,
2013-01-26 12:33:00,21.0,-99.9,30.35,NNW,342,9.0,10.0,-999,-99.99,,,-99.99,,2013-01-26 18:33:00,
2013-01-26 13:03:00,23.0,-99.9,30.34,NNW,340,6.0,7.0,-999,-99.99,,,-99.99,,2013-01-26 19:03:00,
2013-01-26 13:33:00,-999.0,-99.9,-100.00,NE,37,4.0,5.0,-999,-99.99,,,-99.99,,2013-01-26 19:33:00,
2013-01-26 13:43:00,-999.0,-99.9,30.34,NE,37,4.0,5.0,-999,-99.99,,,-99.99,,2013-01-26 19:43:00,
2013-01-26 14:02:00,20.0,-99.9,30.35,SSW,194,3.0,6.0,-999,-99.99,,,-99.99,,2013-01-26 20:02:00,
2013-01-26 14:42:00,-999.0,-99.9,-100.00,South,169,6.0,7.0,-999,-99.99,,,-99.99,,2013-01-26 20:42:00,
2013-01-26 14:52:00,-999.0,-99.9,30.36,South,169,6.0,7.0,-999,-99.99,,,-99.99,,2013-01-26 20:52:00,
2013-01-26 15:03:00,-999.0,-99.9,-100.00,SSW,195,6.0,8.0,-999,-99.99,,,-99.99,,2013-01-26 21:03:00,
2013-01-26 15:12:00,-999.0,-99.9,30.36,SSW,195,6.0,8.0,-999,-99.99,,,-99.99,,2013-01-26 21:12:00,
2013-01-26 15:32:00,20.0,-99.9,30.36,SSW,195,6.0,7.0,-999,-99.99,,,-99.99,,2013-01-26 21:32:00,
2013-01-26 16:32:00,19.0,-99.9,30.35,SSW,199,8.0,10.0,-999,-99.99,,,-99.99,,2013-01-26 22:32:00,
2013-01-26 17:02:00,19.0,-99.9,30.37,SSW,208,6.0,8.0,-999,-99.99,,,-99.99,,2013-01-26 23:02:00,
2013-01-26 17:33:00,16.0,-99.9,30.37,SSW,209,4.0,6.0,-999,-99.99,,,-99.99,,2013-01-26 23:33:00,
2013-01-26 18:02:00,-999.0,-99.9,-100.00,SSW,210,4.0,7.0,-999,-99.99,,,-99.99,,2013-01-27 00:02:00,
2013-01-26 18:12:00,-999.0,-99.9,30.37,SSW,210,4.0,7.0,-999,-99.99,,,-99.99,,2013-01-27 00:12:00,
2013-01-26 18:32:00,18.0,-99.9,30.37,SSW,211,6.0,7.0,-999,-99.99,,,-99.99,,2013-01-27 00:32:00,
2013-01-26 19:02:00,18.0,-99.9,30.35,SSW,198,7.0,9.0,-999,-99.99,,,-99.99,,2013-01-27 01:02:00,
2013-01-26 19:32:00,-999.0,-99.9,-100.00,SSW,207,7.0,9.0,-999,-99.99,,,-99.99,,2013-01-27 01:32:00,
2013-01-26 19:42:00,-999.0,-99.9,30.37,SSW,207,7.0,9.0,-999,-99.99,,,-99.99,,2013-01-27 01:42:00,
2013-01-26 20:02:00,20.0,-99.9,30.36,SSW,204,7.0,8.0,-999,-99.99,,,-99.99,,2013-01-27 02:02:00,
2013-01-26 20:42:00,-999.0,-99.9,-100.00,SSW,207,5.0,7.0,-999,-99.99,,,-99.99,,2013-01-27 02:42:00,
2013-01-26 20:52:00,-999.0,-99.9,30.36,SSW,207,5.0,7.0,-999,-99.99,,,-99.99,,2013-01-27 02:52:00,
2013-01-26 21:02:00,-999.0,-99.9,-100.00,South,172,4.0,5.0,-999,-99.99,,,-99.99,,2013-01-27 03:02:00,
2013-01-26 21:12:00,-999.0,-99.9,30.35,South,172,4.0,5.0,-999,-99.99,,,-99.99,,2013-01-27 03:12:00,
2013-01-26 21:32:00,20.0,-99.9,30.35,South,187,4.0,6.0,-999,-99.99,,,-99.99,,2013-01-27 03:32:00,
2013-01-26 22:32:00,-999.0,-99.9,-100.00,South,170,4.0,6.0,-999,-99.99,,,-99.99,,2013-01-27 04:32:00,
2013-01-26 22:42:00,-999.0,-99.9,30.35,South,170,4.0,6.0,-999,-99.99,,,-99.99,,2013-01-27 04:42:00,
2013-01-26 23:04:00,20.0,-99.9,30.36,SSW,197,5.0,8.0,-999,-99.99,,,-99.99,,2013-01-27 05:04:00,